If you wish to contribute or participate in the discussions about articles you are invited to join SKYbrary as a registered user

 Actions

Angers-Loire Airport

From SKYbrary Wiki

LFJR
Airport
ICAO: LFJR – IATA: ANE
Summary
Name Angers-Loire Airport
Region Europe
Territory France FR.gif
Location Marcé, Pays de la Loire
Serving Angers
Elevation 59.131 m
194 ft
194 ft59.131 m
Type medium airport
Coordinates 47° 33' 37.08" N, 0° 18' 44.00" W
Runways
Designator Length Width Surface ROPS
8/26 1800 m5,905.512 ft
45 m147.638 ft
ASP yes/yes


METAR
Observation LFJR 220600Z AUTO 06006KT 1100 1000 R26/1700U BCFG OVC001 01/01 Q1033 BECMG 3000 BR VV///
Station MARCE
Date/Time 22 February 2019 06:00:00
Wind direction 60°
Wind speed 06 kts
Lowest cloud amount overcast
Temperature 26°C
Dew point 17°C
Humidity 57%
QNH 1033 hPa
Weather condition n/a

Maps

Terrain

Loading map...

Airport Layout

Loading map...


Accidents & Serious Incidents at or in vicinity of LFJR

None on SKYbrary